This is the latest recevied weather packets stored in our database for station/object 9W2TBJ-4. If no packets are shown the sender has not sent any weather packets the latest 10 day(s).
| Time | Temp. | Humidity | Pressure | Rain* | Wind** | Luminosity | Snow |
|---|---|---|---|---|---|---|---|
| 1777678461 | 30.56° C | 63% | 1010.6 hPa | - | - | - | - |
| 1777678367 | 30.56° C | 63% | 1010.6 hPa | - | - | - | - |
| 1777677167 | 30° C | 65% | 1010.2 hPa | - | - | - | - |
| 1777675967 | 30° C | 66% | 1010 hPa | - | - | - | - |
| 1777673567 | 30.56° C | 64% | 1009.7 hPa | - | - | - | - |
| 1777672367 | 30.56° C | 64% | 1009.4 hPa | - | - | - | - |
| 1777671169 | 30° C | 65% | 1009.5 hPa | - | - | - | - |
| 1777669966 | 30° C | 66% | 1009.4 hPa | - | - | - | - |
| 1777668766 | 30.56° C | 65% | 1009.5 hPa | - | - | - | - |
| 1777667567 | 30.56° C | 64% | 1009.7 hPa | - | - | - | - |
| 1777666366 | 30.56° C | 63% | 1009.9 hPa | - | - | - | - |
| 1777665166 | 30° C | 66% | 1010 hPa | - | - | - | - |
| 1777663966 | 30° C | 64% | 1010.2 hPa | - | - | - | - |
| 1777662766 | 30.56° C | 64% | 1010.5 hPa | - | - | - | - |
| 1777661566 | 30.56° C | 64% | 1010.6 hPa | - | - | - | - |
| 1777660366 | 30.56° C | 63% | 1010.7 hPa | - | - | - | - |
| 1777659166 | 30.56° C | 65% | 1011.1 hPa | - | - | - | - |
| 1777657966 | 30.56° C | 64% | 1011.2 hPa | - | - | - | - |
| 1777656766 | 31.11° C | 64% | 1011.3 hPa | - | - | - | - |
| 1777655566 | 31.11° C | 64% | 1011.6 hPa | - | - | - | - |
| 1777654366 | 30.56° C | 64% | 1011.8 hPa | - | - | - | - |
| 1777653166 | 30.56° C | 64% | 1012 hPa | - | - | - | - |
| 1777651966 | 31.11° C | 64% | 1012.2 hPa | - | - | - | - |
| 1777650766 | 31.11° C | 64% | 1012.2 hPa | - | - | - | - |
| 1777649566 | 30.56° C | 64% | 1012.1 hPa | - | - | - | - |
* Rain since midnight (hover to see other rain measurements)
** Current wind speed in m/s (hover to see current wind gust speed)